Location: Stilling
(56.0622°N, 9.9882°E)
Time: 12:51:02
(UTC+00:00)

Cosmos 1825 - Pass Details

Date: 13 July 2020
Orbit: 502 x 508 km, 82.5° (Epoch: 06 August)

Event Time Altitude Azimuth Distance (km) Brightness Sun altitude
Exits shadow 21:06:49 - 172° (S) 1,974 4.6 -6.9°
Reaches altitude 10° 21:07:26 10° 169° (S) 1,727 4.3 -6.9°
Maximum altitude 21:11:05 47° 95° (E) 685 2.6 -7.2°
Drops below altitude 10° 21:14:45 10° 22° (NNE) 1,742 5.4 -7.5°
Sets 21:16:56 0° 16° (NNE) 2,633 6.5 -7.6°
